Погода в Елизаветинской

Россия / Краснодарский край     45°02′54″N   38°47′59″E
темп.,
°C
ветер,
м/с
пор.,
м/с
влажн.,
%
обл.,
%
осадки,
мм/ч
давл.,
гПа
погр.,
м
15 мая, сб
сб1500:00+15зюз11720 0.0 101212
03:00+14зсз33730 0.0 101347
06:00+14зсз34775 0.0 101471
09:00+20з11595 0.0 1014335
12:00+25с22505 0.0 1014764
15:00+26св23485 0.0 10131188
18:00+25св35675 0.0 1012191
21:00+19св34830 0.0 101248
16 мая, вс
вс1600:00+17ссв11927 0.4 101115
03:00+16ссв2294100 1.3 101122
06:00+17св1293100 0.2 101060
09:00+21св2380100 0.2 1009394
12:00+26всв4569100 0.0 1007997
15:00+28всв56647 0.0 10051292
18:00+26всв47755 0.0 1003404
21:00+22всв499374 0.0 1002178
17 мая, пн
пн1700:00+20вюв359372 0.0 100277
03:00+19ю2285100 0.0 100214
06:00+19ю71670100 0.0 1005633
09:00+21ююз477098 0.0 1006618
12:00+23юз3556100 0.0 1008951
15:00+24зюз445783 0.0 10091354
18:00+20з477287 0.0 1010416
21:00+16зюз358321 0.0 101297
18 мая, вт
вт1800:00+13юз3593100 0.0 101293
03:00+13ююз2394100 0.0 101262
06:00+14ю24915 0.0 1013116
09:00+19ююз23705 0.0 1014696
12:00+23юз46552 0.0 10131632
15:00+23юз6754100 0.0 10131467
18:00+20юз3571100 0.0 1014355
21:00+15ю338375 0.0 101535
19 мая, ср
ср1900:00+14ю22855 0.0 101429
03:00+13юз1184100 0.0 101415
06:00+15юв2279100 0.0 101434
09:00+20юв34664 0.0 1014397
12:00+25вюв244972 0.0 10121290
15:00+26вюв5451100 0.0 1011952
18:00+24в47660 0.0 1010265
21:00+19вюв34850 0.0 100945